GFSSGP_500_spd_273.txt.gz
Wind_Speed
19 19 21 23 27 28 26 23 22 26 30 30 32 33 33 32 32 33 33 30 30 30 28 27 27 25 25 26 26 26 27 27 28 27 26 25 27 27 28 25 24 22 23 21 20 19 17 17 16
20 22 25 28 31 32 32 31 31 33 35 35 37 38 39 39 38 38 38 36 33 34 33 32 30 29 28 29 29 29 31 30 30 31 29 28 27 28 29 29 25 25 24 24 23 23 21 20 19
24 27 30 33 33 33 37 38 40 40 41 43 43 43 45 45 45 44 44 43 41 39 40 38 37 34 32 31 33 32 32 33 33 34 33 32 30 28 27 28 27 26 26 27 25 25 24 22 22
27 29 32 33 35 37 41 44 45 45 45 47 49 50 51 52 52 51 50 49 48 48 46 45 42 40 38 35 35 36 35 34 35 36 34 35 34 33 30 28 27 27 27 27 27 27 26 24 23
28 30 33 34 36 38 42 45 45 45 46 46 48 50 53 54 57 58 58 58 57 54 53 51 50 48 45 42 39 39 39 38 36 37 37 37 37 37 36 34 30 28 28 28 29 30 28 25 24
32 35 36 39 40 43 46 47 49 49 48 48 54 57 55 57 57 59 62 62 63 63 61 59 55 54 52 49 46 44 43 43 41 38 38 39 39 39 38 36 32 29 29 29 30 30 29 27 26
35 38 39 43 45 47 50 51 53 53 52 50 54 56 59 59 58 58 60 64 65 66 68 66 63 60 58 56 53 51 48 47 44 42 39 39 40 41 39 39 36 34 32 30 31 31 31 31 29
38 42 45 48 50 52 52 56 57 58 56 58 58 60 59 62 61 58 57 59 62 66 68 70 69 65 59 60 59 55 52 50 48 46 44 42 40 39 39 40 40 39 37 35 33 32 33 32 31
41 45 49 53 57 59 60 59 59 60 58 55 57 61 63 61 60 58 55 54 57 61 66 69 69 68 67 59 63 53 54 53 52 49 48 46 44 41 39 38 40 42 40 38 37 34 34 34 33
44 48 52 55 60 61 61 61 59 58 59 60 59 62 61 64 64 62 61 59 57 55 58 68 70 70 71 68 63 61 58 53 47 45 52 50 47 42 38 41 46 45 43 41 39 37 36 35 35
47 52 56 57 59 59 57 58 61 63 65 67 65 66 68 64 66 69 67 64 62 59 57 60 71 70 71 74 71 69 62 62 58 53 50 52 52 47 41 39 49 49 42 43 42 40 37 36 37
51 54 55 54 53 54 59 63 64 65 67 68 68 70 72 75 72 69 71 71 68 65 61 60 64 74 70 73 71 72 73 64 61 62 58 53 53 55 46 42 42 45 39 38 42 41 38 39 39
52 52 51 52 55 57 61 64 70 71 70 73 75 75 73 71 70 74 74 75 73 70 67 64 62 69 75 71 76 72 72 74 71 68 66 61 58 58 60 50 51 41 38 39 39 43 43 41 41
53 50 50 51 57 63 68 66 68 69 71 73 74 75 75 74 73 74 77 75 75 75 73 69 67 66 72 75 61 69 70 72 70 73 71 69 65 62 61 61 52 50 38 52 40 48 45 46 44
48 47 49 57 62 67 67 59 59 66 71 68 67 66 66 68 69 72 73 75 77 75 74 73 70 67 66 73 81 66 63 72 68 72 74 73 73 69 66 63 55 57 49 45 40 41 42 48 49
45 46 54 60 67 69 60 55 59 65 63 57 53 52 54 54 55 58 64 64 75 80 76 76 73 70 67 68 76 77 62 58 60 62 74 73 72 74 72 66 65 54 54 35 43 47 52 45 49
42 48 53 60 67 65 56 54 59 56 50 44 42 46 48 49 44 43 51 58 63 80 80 78 75 72 69 67 66 73 77 70 61 59 73 74 75 75 75 71 68 65 57 51 36 35 49 55 43
45 51 57 65 69 66 53 51 53 43 38 33 35 40 41 44 37 38 37 45 49 69 79 77 76 72 69 68 66 64 68 76 71 64 61 73 74 76 75 73 69 65 59 60 46 37 38 45 48
45 52 61 66 68 63 52 49 40 32 29 28 30 33 35 27 25 29 30 37 35 43 66 74 73 70 67 66 64 61 58 64 72 64 63 65 75 74 73 72 68 67 65 58 60 42 41 44 47
46 51 60 66 67 62 55 46 31 25 26 24 24 28 24 20 10 9 13 30 29 29 43 63 68 67 65 64 62 59 55 54 51 54 53 55 60 71 73 72 68 64 65 66 60 66 39 39 39
46 52 57 65 69 62 57 47 31 25 25 24 19 21 20 17 12 10 13 15 29 25 29 47 58 62 61 62 62 58 55 52 50 51 50 50 51 50 52 68 70 67 65 67 70 59 48 27 29
45 51 54 63 69 69 56 51 35 25 23 22 20 21 19 17 14 15 11 14 21 24 24 32 47 53 55 57 59 57 54 53 50 50 51 51 52 51 50 50 52 66 66 65 67 67 65 52 44
43 49 51 62 68 70 61 50 41 25 23 26 19 21 17 15 12 9 10 11 17 21 22 26 35 44 47 50 53 55 54 52 51 50 49 49 50 50 48 48 50 51 64 63 67 58 55 67 65
42 46 52 59 64 67 68 50 45 28 21 23 23 17 15 14 10 7 2 6 12 16 18 21 26 31 33 39 44 48 53 53 53 51 51 50 48 47 47 43 44 51 48 60 62 61 55 49 51
40 44 51 57 63 66 67 56 41 40 23 23 21 16 13 13 11 5 4 7 9 12 16 18 21 26 28 33 36 42 46 51 53 52 51 50 48 46 43 43 42 44 48 47 57 55 45 41 43
36 43 49 53 59 63 62 61 44 38 33 20 19 15 13 11 9 4 7 7 8 9 13 20 22 24 26 28 29 32 37 42 46 50 53 51 49 46 41 38 35 37 45 46 53 54 36 31 39
33 39 43 50 55 59 60 63 56 35 33 23 15 16 12 12 14 11 8 9 10 11 13 18 21 24 26 27 27 27 29 33 37 39 43 46 45 39 37 33 31 36 41 45 49 50 37 30 30
28 34 40 45 50 55 55 57 58 50 31 30 17 11 8 9 11 13 10 10 12 13 13 16 19 20 20 20 21 23 23 25 27 29 32 32 31 30 36 36 35 33 42 43 46 45 33 33 28
27 32 35 39 44 51 54 54 54 57 51 31 24 12 7 7 7 11 11 11 12 13 15 18 20 20 21 21 21 21 22 24 26 29 30 24 29 32 38 37 30 32 39 36 31 35 37 28 29
27 28 29 34 38 44 50 50 48 53 48 46 24 20 8 8 9 11 11 12 15 14 15 18 21 21 21 22 21 21 22 26 29 32 28 30 37 35 25 26 23 49 29 25 30 29 30 30 25

GFSSGP_500_spd_276.txt.gz
Wind_Speed
16 17 18 19 22 20 17 16 20 24 27 29 30 30 30 30 30 32 29 28 27 26 27 27 26 26 25 25 26 27 26 27 26 26 25 25 27 27 28 26 25 23 23 22 21 21 19 17 16
18 18 19 21 24 24 25 24 26 28 30 32 34 35 36 36 36 37 35 34 33 33 33 32 32 31 30 28 28 29 30 30 30 31 30 28 28 29 30 30 29 26 25 24 24 24 22 21 18
20 21 23 24 24 27 30 30 31 33 33 35 36 38 40 42 41 43 42 42 40 39 38 37 36 35 34 33 33 32 32 33 34 33 33 32 30 31 30 31 30 29 28 26 25 25 24 24 22
21 22 25 26 29 31 33 33 33 34 37 39 40 43 44 46 47 47 48 47 47 46 44 44 43 41 39 38 36 35 34 34 36 37 36 36 34 32 31 32 32 32 31 29 27 27 25 26 25
23 25 27 27 29 31 33 36 37 39 41 43 44 45 47 46 49 50 51 51 52 52 52 50 49 48 45 43 40 41 38 37 38 38 38 38 37 36 34 33 31 31 30 29 29 29 29 29 28
26 27 28 30 32 36 38 41 43 44 45 48 52 53 53 53 52 51 53 55 56 57 58 58 56 54 53 51 47 42 41 41 41 41 40 39 40 38 37 36 36 36 34 31 31 32 31 31 30
28 30 31 34 36 39 42 44 47 48 49 50 53 56 60 60 57 57 55 55 56 58 59 61 62 62 60 58 56 52 49 46 44 43 43 41 40 40 40 41 39 39 38 35 33 34 33 33 32
30 33 35 38 40 43 46 49 51 52 50 51 51 58 58 59 62 61 62 61 60 60 61 62 64 66 66 64 63 58 56 51 49 48 47 45 42 42 40 41 43 44 40 37 35 34 34 35 34
33 36 39 42 45 48 50 52 53 54 54 54 55 57 59 61 62 63 64 65 65 67 64 63 65 67 70 69 68 65 60 59 55 52 51 50 47 45 43 42 42 42 42 39 39 39 37 37 37
35 38 42 45 49 51 52 51 53 55 57 57 59 61 61 61 63 66 67 65 67 65 65 65 66 67 70 73 69 69 66 60 60 58 54 53 52 49 46 44 43 41 43 41 43 42 42 39 37
36 40 44 48 50 49 50 51 54 58 61 63 66 67 68 69 66 67 67 71 70 67 66 65 64 67 68 72 73 72 71 61 56 58 59 56 55 54 52 50 44 41 43 47 47 45 44 41 39
39 42 44 44 44 46 49 53 59 63 66 69 74 76 74 70 68 70 70 71 70 71 69 70 67 67 69 70 72 69 73 73 66 64 60 60 58 59 60 52 44 36 55 48 47 45 45 45 45
40 41 40 39 44 45 51 58 61 64 68 72 76 79 79 73 70 70 74 77 76 74 74 73 73 71 70 69 71 73 71 74 71 69 67 65 64 62 62 59 57 51 35 35 53 45 44 51 49
41 37 34 37 42 48 54 56 62 65 72 75 76 78 80 79 80 79 75 78 81 79 78 75 74 73 73 70 70 72 76 74 76 76 71 71 68 66 63 64 64 62 44 32 40 40 39 43 46
38 30 32 38 44 48 48 59 64 71 70 70 77 79 75 73 73 73 67 69 75 79 80 78 76 76 76 74 71 72 73 80 64 73 79 74 75 70 66 65 67 64 59 39 35 42 46 48 48
34 27 33 38 44 50 56 64 71 68 65 67 67 64 57 54 51 48 48 50 57 68 78 82 79 79 77 78 75 71 72 76 81 79 76 80 78 75 72 70 67 69 68 52 43 41 33 43 44
26 27 33 40 46 55 62 68 74 64 60 49 41 39 39 39 41 43 46 48 50 57 65 75 82 82 81 79 78 74 72 74 77 82 68 72 81 77 74 72 69 70 68 68 57 39 40 37 44
28 29 35 44 50 59 66 70 72 61 52 38 33 35 36 37 37 39 39 38 40 45 53 67 74 81 83 80 78 76 74 72 74 78 71 74 66 70 81 76 75 73 73 66 63 56 40 35 35
26 32 35 45 52 61 65 68 70 57 44 34 33 35 34 35 33 31 26 27 30 37 45 52 65 74 81 81 77 75 71 70 70 79 77 73 71 68 75 75 76 77 76 75 63 59 60 43 43
28 33 40 44 53 61 63 66 63 53 39 31 32 34 32 32 31 26 20 17 19 27 32 39 50 62 73 79 76 73 71 67 67 72 75 81 64 60 66 71 72 74 75 76 68 65 62 61 57
30 34 41 46 52 57 63 63 62 50 40 29 30 30 30 26 25 22 20 16 15 18 24 27 34 41 64 73 73 71 69 67 63 62 53 61 66 56 58 65 70 71 74 73 66 64 66 64 62
28 33 39 43 50 56 62 61 60 46 39 28 25 26 27 24 20 15 16 15 12 13 23 24 29 36 53 68 70 69 67 62 59 52 48 47 56 61 63 56 56 63 65 64 65 63 66 65 66
31 33 37 42 49 54 58 61 61 44 40 25 26 25 24 20 16 10 9 9 10 12 22 22 25 33 40 60 64 65 63 61 57 52 48 45 46 55 56 54 48 49 57 63 66 64 62 65 62
32 32 35 40 47 51 56 58 60 48 37 28 23 25 20 17 14 9 7 7 5 8 14 19 23 28 33 45 55 57 57 56 54 49 46 44 43 45 45 43 43 42 41 44 43 57 65 62 66
31 31 34 38 43 47 53 56 56 52 37 29 17 21 18 14 16 10 6 4 4 7 11 17 22 27 28 35 43 48 48 49 51 48 46 46 45 45 44 42 39 38 39 41 41 40 39 48 60
27 30 32 36 39 43 50 52 54 55 40 29 15 15 15 13 12 9 5 3 1 6 10 16 23 27 27 28 31 35 40 43 45 47 46 46 46 45 44 41 38 37 37 37 34 35 39 35 44
25 29 31 35 36 40 49 52 51 53 46 26 17 12 14 13 14 13 11 10 11 7 9 11 18 26 25 22 24 28 34 39 39 40 43 44 43 43 43 41 38 36 32 36 31 35 36 37 38
26 29 30 31 36 40 44 47 46 51 47 33 18 9 11 11 14 15 17 16 12 10 11 12 16 22 25 27 29 30 32 34 36 35 36 39 41 42 41 38 36 34 29 28 28 27 33 35 37
27 29 30 29 31 38 42 44 43 49 49 35 17 13 11 10 12 14 18 18 16 13 13 15 17 19 22 25 25 25 25 26 27 29 29 31 32 33 32 32 33 34 30 31 37 29 41 36 33
28 31 32 28 29 33 38 40 40 45 48 34 19 17 13 12 12 14 17 20 20 17 17 17 18 21 22 23 24 24 24 24 24 23 23 24 25 28 26 33 33 35 32 29 36 36 31 28 35

GFSSGP_500_spd_279.txt.gz
Wind_Speed
15 17 17 17 16 14 14 17 21 23 27 26 28 29 30 29 30 32 27 28 28 27 28 28 26 25 27 28 28 30 30 29 28 28 29 29 29 29 29 27 25 24 23 22 21 22 20 18 17
18 18 19 19 20 19 19 21 24 26 27 28 30 31 33 34 32 36 34 33 33 33 33 32 31 31 29 28 30 32 32 32 32 32 31 31 30 31 30 30 29 28 27 26 25 24 23 22 20
18 20 21 21 21 24 26 24 27 28 29 31 33 34 36 38 36 40 38 39 40 39 38 38 37 36 35 34 32 34 35 35 36 37 35 35 32 31 32 32 31 31 30 29 29 28 26 25 23
20 21 22 24 26 28 29 27 28 31 33 32 34 37 38 39 40 41 43 44 45 46 45 44 43 41 40 39 38 37 37 37 37 37 37 36 35 34 33 33 33 33 32 32 31 31 30 28 27
21 22 24 25 27 28 30 30 30 33 36 37 38 40 44 43 43 43 45 46 46 48 50 51 50 48 46 45 43 42 41 40 38 38 38 38 38 37 36 34 33 35 35 34 33 34 32 31 30
22 23 24 25 28 27 30 32 34 35 39 42 45 45 48 52 48 50 50 49 50 50 51 54 55 54 53 51 49 47 45 43 42 41 40 39 38 39 39 37 35 35 37 36 36 37 35 34 34
23 24 25 27 29 32 33 36 38 40 42 46 48 50 52 56 50 53 54 55 54 54 53 54 58 59 59 58 56 53 51 47 46 47 46 43 40 39 40 40 40 39 39 38 36 36 36 36 36
26 27 28 29 32 36 36 39 41 42 42 46 48 53 55 57 59 57 60 61 61 60 59 56 58 61 64 63 63 60 55 54 51 49 49 47 44 42 40 41 42 43 43 44 44 42 40 38 38
27 29 31 33 35 37 39 41 42 40 39 43 46 49 58 56 59 62 61 61 63 66 66 63 61 62 63 67 67 67 63 60 56 55 51 49 49 47 43 41 42 44 47 48 46 48 45 40 40
28 29 33 36 38 40 41 39 40 44 43 46 49 53 56 57 59 60 62 65 67 66 66 70 66 65 66 67 69 70 70 65 60 59 58 54 53 51 48 47 45 47 46 42 41 48 48 42 39
29 32 35 37 41 41 39 39 40 46 46 47 50 52 57 61 64 68 71 72 70 73 72 71 68 68 69 70 71 73 73 72 64 60 60 61 58 55 53 51 50 49 46 46 43 40 47 46 41
30 34 37 39 41 38 38 41 44 45 46 51 56 60 64 69 72 77 81 81 81 76 78 78 75 70 69 72 73 74 76 75 72 68 65 63 61 60 58 57 56 52 46 43 41 45 46 50 48
33 35 38 40 41 36 40 41 45 44 50 53 62 66 72 78 83 87 86 84 82 78 78 82 79 75 72 72 75 75 77 79 77 72 71 66 63 64 64 62 59 53 54 50 45 49 47 49 49
34 36 39 41 39 35 39 42 42 47 53 60 67 70 77 80 86 86 81 83 84 82 79 82 80 78 76 74 74 78 78 79 80 78 75 76 66 63 66 67 46 62 45 60 56 50 44 43 48
35 37 39 37 34 38 41 44 43 51 57 65 68 76 76 83 71 59 56 57 62 71 76 83 83 82 80 79 78 78 81 80 81 79 76 76 72 69 65 67 70 66 47 57 51 51 35 36 34
36 39 39 38 32 38 42 45 52 55 60 64 68 72 73 67 54 45 43 43 46 47 52 63 81 86 88 84 83 81 83 83 80 80 79 74 77 76 71 69 68 72 77 64 61 54 40 40 41
37 39 36 34 34 39 45 49 55 57 62 64 66 67 61 50 45 44 43 43 47 50 53 54 60 73 85 88 88 86 84 86 81 79 80 76 77 81 68 68 72 70 73 73 70 68 45 35 44
40 41 37 37 40 42 46 50 54 59 63 64 64 60 50 44 45 46 43 43 45 44 44 52 58 64 73 85 90 88 87 86 84 79 78 80 74 71 80 78 71 73 74 76 73 68 63 54 41
40 42 40 38 39 41 44 48 55 58 61 61 57 52 42 43 42 41 42 40 39 33 35 39 45 60 64 74 83 88 87 86 85 80 76 77 78 71 69 69 77 79 74 75 68 65 67 70 53
41 42 41 40 38 41 44 48 52 57 60 60 52 44 37 41 40 39 39 37 33 30 32 37 40 41 55 65 71 79 85 84 81 80 75 76 83 76 75 64 70 74 78 77 72 67 68 69 69
42 43 43 41 37 38 45 47 53 57 58 57 49 40 35 37 33 34 34 33 29 25 26 26 33 38 42 52 66 70 78 81 81 81 75 70 74 81 83 72 57 66 69 75 75 70 72 69 70
45 45 44 39 35 39 43 47 54 57 57 54 48 40 33 33 29 29 28 27 22 22 22 17 17 19 35 39 53 66 71 77 80 78 74 68 63 66 71 70 68 63 65 68 69 74 74 72 65
46 48 44 35 33 37 41 48 54 55 57 54 47 39 31 28 24 25 25 23 21 20 18 16 19 20 27 30 35 55 65 72 74 73 71 66 62 57 64 67 73 62 66 65 63 63 66 68 68
46 46 37 33 33 35 40 47 51 54 56 53 45 35 27 23 23 22 21 21 20 19 15 15 21 21 27 34 34 43 58 65 68 68 63 60 54 52 50 57 74 52 49 50 50 49 51 58 66
44 39 34 37 39 36 38 45 46 49 55 51 41 29 23 20 21 22 21 21 20 18 15 13 16 18 25 31 38 34 49 58 63 61 56 52 48 40 42 40 53 59 51 52 46 45 42 46 50
39 34 35 40 41 35 35 43 43 48 56 49 32 23 19 17 20 19 18 17 11 11 12 12 13 16 24 35 38 34 43 51 56 53 49 43 39 36 34 35 37 40 40 40 40 39 40 39 38
37 35 36 40 39 38 34 40 41 47 53 40 25 17 15 18 22 22 23 20 18 9 3 3 7 14 22 34 36 31 36 41 47 43 41 38 36 35 33 32 34 36 35 32 31 33 35 34 32
35 35 38 38 40 38 36 38 39 46 39 23 25 20 17 21 23 26 26 23 19 15 11 8 7 13 22 30 32 29 32 35 37 36 36 36 36 36 33 32 34 34 32 31 30 30 31 28 26
34 34 36 40 31 32 37 34 33 34 25 29 25 22 19 22 24 27 35 35 28 19 15 14 13 17 21 27 32 32 30 29 30 32 32 34 37 38 39 39 37 36 34 33 31 30 31 35 29
31 33 36 35 27 27 30 28 31 21 28 30 25 19 20 25 26 27 28 31 30 27 18 16 15 17 20 22 24 25 27 27 28 30 29 31 36 40 41 40 40 40 38 36 32 31 33 45 46

GFSSGP_500_spd_285.txt.gz
Wind_Speed
13 13 14 12 13 13 19 19 16 16 16 20 20 20 21 21 22 24 22 23 24 22 24 23 24 25 28 29 30 33 33 33 31 31 31 29 30 30 30 30 30 29 29 27 25 25 23 22 21
14 14 14 15 16 15 20 19 16 17 21 22 21 24 25 25 24 27 27 27 27 26 27 28 28 27 28 30 31 33 34 37 35 34 33 33 33 33 33 33 33 32 30 30 28 27 26 25 24
15 15 15 15 16 18 20 20 20 22 21 23 23 24 27 26 27 28 28 31 32 30 30 32 32 33 33 33 32 33 35 36 36 38 36 36 34 35 35 36 35 35 33 33 31 29 28 27 26
17 17 17 17 18 18 18 22 22 24 24 23 23 26 24 26 27 29 30 31 32 32 32 34 37 38 38 38 38 37 36 37 36 38 40 42 38 36 38 39 37 37 36 35 34 33 32 31 30
17 17 17 19 20 21 20 19 23 24 26 25 24 28 29 29 30 32 33 35 36 37 36 37 40 40 41 43 43 43 42 40 39 39 39 40 42 40 39 38 37 39 39 38 36 36 36 34 33
18 18 19 21 22 22 19 24 25 26 28 29 28 31 34 33 34 35 37 39 40 40 39 41 44 44 45 45 46 48 48 46 44 43 43 41 42 43 42 40 40 39 39 40 39 38 38 38 37
19 19 20 22 24 22 21 24 26 28 31 31 33 35 36 38 37 35 39 43 45 45 43 43 44 46 48 49 49 49 51 52 51 48 47 46 44 44 44 44 43 42 41 41 40 39 40 40 40
20 20 21 21 22 23 23 24 26 27 29 33 35 38 40 38 38 38 40 41 43 46 45 45 45 46 48 50 52 53 53 54 56 55 54 51 48 47 46 46 48 47 46 40 42 42 43 42 42
23 22 22 23 22 24 24 26 26 28 32 33 35 39 41 44 43 42 40 39 41 44 45 44 44 46 46 49 52 54 56 56 57 59 59 58 54 53 49 48 48 49 50 46 43 38 43 45 44
25 25 24 25 25 26 25 26 28 31 34 37 40 40 43 46 46 41 40 41 44 46 47 47 46 46 48 49 52 53 56 58 60 60 62 63 59 58 53 52 52 51 51 50 49 45 40 38 38
25 25 26 26 28 28 28 29 32 33 35 39 39 42 45 47 47 46 45 45 45 47 49 53 54 52 54 53 55 57 59 58 60 64 64 65 66 62 61 58 56 54 53 51 50 48 46 45 45
26 27 28 28 28 30 31 32 36 39 40 43 44 43 44 46 48 50 52 53 53 54 55 57 57 60 59 61 61 63 61 63 63 63 67 67 69 69 63 63 61 58 57 55 53 52 47 42 57
28 28 30 30 30 31 33 36 38 41 45 48 48 47 48 47 49 52 53 57 58 61 61 62 65 68 68 69 69 68 69 69 70 71 69 71 70 71 70 64 65 63 61 60 56 54 52 47 51
29 30 31 31 32 33 35 38 41 45 47 52 53 52 53 51 50 53 55 58 63 66 68 71 72 72 74 78 80 77 78 78 77 79 77 76 75 74 74 73 65 66 66 63 61 58 55 54 57
32 30 32 33 33 34 37 39 43 47 52 56 56 57 60 57 56 57 60 63 66 70 72 75 78 80 82 83 83 82 83 83 82 83 87 85 79 79 77 78 73 65 65 67 64 62 58 59 52
32 32 32 34 34 36 39 41 46 51 55 57 57 56 56 58 58 60 63 67 71 74 77 80 83 84 87 87 86 84 86 83 85 82 88 91 85 82 81 79 80 74 51 54 69 63 60 59 53
32 34 33 35 37 39 42 44 51 55 58 56 52 51 53 56 60 64 69 73 78 80 82 82 80 79 77 78 76 77 76 77 78 86 93 94 91 86 83 84 84 81 81 73 56 67 66 66 62
33 34 33 36 39 41 44 48 51 53 51 46 46 50 55 59 64 68 75 79 80 77 68 62 60 60 62 64 68 70 68 68 73 81 98 99 95 91 88 86 84 85 82 72 59 55 65 73 65
33 34 35 37 39 42 45 48 47 46 45 43 47 53 57 61 67 72 72 64 52 48 47 50 52 53 50 53 54 55 56 62 65 72 91 97 97 96 92 89 88 87 87 82 76 59 49 59 68
32 33 34 37 40 43 46 45 42 42 45 48 51 54 58 61 57 53 51 47 45 45 46 45 44 46 47 48 49 51 57 58 55 65 78 84 92 97 94 90 87 86 87 88 86 75 61 58 54
30 32 34 38 41 43 44 43 42 45 45 47 48 50 46 48 48 44 44 43 42 42 42 43 43 43 42 43 43 45 47 51 53 62 68 77 83 92 90 83 81 86 84 89 77 80 69 58 45
28 31 33 37 41 45 44 46 45 46 41 40 40 37 39 41 43 42 40 41 39 37 37 38 38 39 39 38 38 41 48 47 51 55 56 65 69 82 80 81 84 81 82 81 88 84 77 73 66
27 29 33 37 40 42 42 46 40 34 35 31 35 36 34 37 37 38 38 37 35 36 37 36 33 31 31 32 27 28 28 38 46 48 49 54 61 74 78 75 76 73 63 64 77 82 78 69 60
25 29 33 37 41 42 43 44 34 34 29 31 39 33 32 32 34 33 32 31 31 32 34 34 31 27 26 25 23 23 19 25 34 44 51 50 54 64 69 68 70 73 75 71 62 73 73 76 59
24 28 33 39 40 41 43 33 32 29 26 35 32 30 27 31 32 34 32 32 29 29 30 30 30 27 22 22 24 21 20 23 27 34 45 45 47 59 65 63 60 60 67 68 67 62 70 68 74
23 26 31 37 39 41 32 29 27 23 27 28 28 28 29 33 34 33 30 29 27 25 26 27 26 22 16 16 18 18 18 19 23 25 37 42 47 53 58 58 54 40 50 64 63 61 55 65 58
20 25 29 34 37 38 27 27 22 20 25 27 29 29 31 33 35 31 29 27 25 22 23 25 25 19 12 9 10 14 18 19 15 23 32 38 44 49 51 53 55 55 52 51 61 56 66 59 54
20 24 29 32 37 35 26 24 20 20 23 25 28 31 32 33 33 29 27 25 22 21 21 23 25 23 15 6 3 9 17 15 14 25 31 34 39 42 44 45 45 46 44 43 42 45 45 42 47
17 23 25 31 28 30 27 22 17 17 20 23 28 32 34 35 32 26 25 24 23 20 20 21 22 22 19 14 8 4 7 9 19 29 31 34 39 38 36 38 37 38 39 36 35 35 36 35 39
16 19 24 29 25 26 25 19 14 16 19 25 28 31 29 33 33 23 24 21 21 20 19 23 23 19 14 11 10 11 14 19 24 27 36 41 40 34 34 36 36 35 35 34 34 36 37 39 38

GFSSGP_500_spd_291.txt.gz
Wind_Speed
15 15 15 17 17 17 15 14 13 14 18 20 21 20 20 21 20 19 16 17 19 20 21 21 22 22 23 25 27 30 32 28 29 27 26 25 24 24 25 26 31 31 31 28 28 26 26 26 26
14 14 16 18 19 18 16 15 16 17 19 21 21 20 21 22 23 22 20 21 23 24 24 25 25 25 25 27 28 29 33 33 31 31 30 29 29 28 27 28 29 33 33 32 31 31 29 28 27
15 15 17 18 17 18 17 16 18 19 21 22 22 23 23 23 27 26 25 25 26 28 28 28 29 30 30 30 31 31 32 35 37 36 34 35 35 35 32 31 31 33 36 36 35 34 33 31 30
19 19 20 20 19 17 17 19 19 19 21 22 23 25 25 28 28 28 28 28 28 30 31 31 32 33 34 35 34 35 35 35 37 38 39 38 39 39 39 36 34 36 36 38 37 37 36 36 34
20 21 21 19 19 16 20 21 21 21 23 23 24 24 26 28 29 29 29 30 29 31 33 34 35 36 35 36 38 39 39 39 39 39 39 40 40 41 42 40 42 36 38 39 41 40 41 39 37
21 22 22 21 20 20 22 23 24 23 23 24 25 26 26 27 29 30 32 32 33 33 36 38 39 40 40 40 40 41 42 43 44 43 42 42 42 42 43 43 41 43 37 39 42 43 43 42 39
22 23 23 23 22 23 24 26 26 26 25 25 27 28 26 30 31 31 32 34 36 37 38 40 43 44 45 46 45 45 46 46 46 47 48 47 46 45 45 43 42 41 44 43 43 47 45 44 43
23 24 24 24 24 25 26 28 28 28 29 30 30 31 30 31 32 33 34 35 36 38 39 40 43 46 49 50 51 51 51 50 51 51 50 50 51 50 49 49 46 44 43 43 45 47 48 46 45
25 25 25 27 27 28 29 29 30 31 32 33 34 35 34 35 35 37 38 40 40 41 43 45 46 46 48 52 54 54 55 55 55 55 56 55 54 54 54 53 51 48 46 45 45 47 48 48 48
26 26 28 29 30 30 30 31 32 33 34 34 37 37 38 38 40 41 42 45 46 48 48 48 47 48 50 52 56 56 57 58 58 58 57 59 59 59 58 58 57 55 51 49 48 48 49 50 49
29 28 30 30 32 32 32 32 33 33 32 39 39 40 41 41 42 45 47 48 50 51 52 53 54 55 56 56 57 59 59 59 61 61 60 61 61 62 63 62 61 60 58 52 52 53 53 50 51
32 31 31 32 34 34 34 34 35 32 36 39 41 42 43 44 45 48 51 52 53 53 56 59 60 61 62 62 61 61 62 61 59 62 63 62 62 63 65 66 65 64 64 61 56 57 55 54 52
32 33 33 34 34 35 35 36 36 31 41 39 41 43 44 46 48 52 54 55 56 57 61 65 66 66 64 64 65 64 65 65 63 62 62 61 61 63 64 65 68 68 67 67 63 61 59 58 57
34 35 35 35 35 36 37 38 36 36 39 41 42 45 46 49 52 55 58 59 61 65 68 69 69 69 67 66 65 65 66 68 68 66 66 65 64 63 64 66 66 69 70 70 70 65 64 62 62
36 36 37 35 36 38 39 39 34 39 41 42 45 47 49 52 56 59 62 65 67 69 68 67 68 68 68 68 68 70 72 73 73 73 71 71 69 68 68 67 67 67 70 72 73 68 68 67 66
38 38 36 35 37 40 42 37 34 39 42 45 45 48 52 56 59 61 62 64 66 66 66 66 67 68 69 69 69 71 74 77 79 81 81 79 78 78 75 71 70 70 67 70 72 73 72 70 70
38 40 37 38 39 42 42 38 35 38 44 43 47 50 53 57 59 60 62 63 64 63 63 65 66 68 71 74 76 79 80 81 83 84 87 88 86 84 82 79 75 74 72 70 70 70 72 72 71
41 41 41 41 44 44 42 39 35 40 43 45 46 51 54 55 57 58 56 54 54 56 59 60 60 62 64 67 70 73 76 79 83 87 90 91 91 92 90 85 82 80 77 72 72 71 69 72 67
37 40 43 43 45 44 40 38 35 38 43 45 48 50 52 53 49 47 50 52 54 54 54 56 58 60 63 67 70 71 71 72 72 72 76 85 92 94 94 93 88 87 83 79 76 76 74 72 69
40 40 40 43 43 49 41 36 36 39 43 44 47 49 46 42 41 44 46 48 47 45 45 50 53 52 53 56 59 62 63 64 66 69 70 70 75 80 87 93 95 93 89 84 79 79 79 74 70
39 40 41 42 42 43 36 36 33 37 41 44 44 40 35 34 38 39 43 42 42 47 48 49 50 50 51 50 50 51 54 58 61 64 66 66 66 69 72 78 85 90 95 91 85 82 82 79 75
40 40 41 39 35 32 32 38 31 36 42 40 36 30 28 31 33 38 41 43 45 47 46 47 49 49 48 49 50 50 52 56 59 58 62 65 68 66 66 69 74 79 85 90 91 85 85 74 75
42 35 34 34 30 31 27 34 32 37 37 35 27 26 25 28 36 40 44 46 48 46 44 45 48 50 51 53 53 53 52 51 55 61 63 63 64 63 64 67 69 72 77 85 92 90 89 88 48
39 33 32 32 30 29 26 31 30 36 33 26 23 24 28 33 37 42 47 51 47 42 41 40 46 49 50 52 55 50 46 48 50 52 51 53 53 56 58 60 63 68 72 78 90 92 92 90 76
35 33 33 31 28 25 24 30 32 33 29 22 22 24 27 33 37 42 46 50 40 39 36 38 43 45 45 49 51 41 44 43 37 37 37 40 42 47 55 62 66 68 70 73 80 88 91 94 94
35 34 34 31 24 23 22 26 30 26 22 21 20 24 27 33 39 41 45 49 38 33 32 36 39 40 41 46 48 32 35 29 24 25 28 34 36 40 41 46 52 54 62 65 68 78 86 91 92
35 34 27 22 21 22 20 21 23 20 18 18 22 28 31 35 38 40 41 45 31 29 30 33 34 34 35 41 45 27 25 20 17 17 21 26 27 28 29 32 37 44 47 50 56 60 57 72 92
30 27 18 16 19 21 15 18 16 15 14 17 22 27 30 32 34 37 35 39 27 29 28 30 29 30 30 35 38 31 16 13 10 12 15 21 30 33 29 15 34 35 39 43 50 65 49 53 78
24 20 15 14 16 20 18 13 12 14 13 19 22 25 25 29 31 32 37 38 25 24 25 27 26 27 27 30 31 30 21 7 4 5 8 18 31 33 18 17 19 28 35 40 51 57 42 38 46
22 15 14 11 11 14 14 14 9 12 14 15 18 19 22 27 26 31 30 33 27 21 22 23 25 24 24 26 28 27 25 14 6 8 6 13 26 21 15 17 23 27 34 38 40 55 43 39 27